Regional Weather Roundup
Issued by NWS

Home | Current Version | Previous Version | Graphics & Text | Print | Product List | Glossary On
Versions: 1 2 3 4 5 6 7 8 9 10 11 12 13 14 15 16 17 18 19 20 21 22 23 24 25 26 27 28 29 30 31 32 33 34 35 36 37 38 39 40 41 42 43 44 45 46 47 48 49 50
000
ASUS43 KLSX 272307
RWRMO
STLRWRMO ALL

WEATHER SUMMARY FOR MISSOURI
NATIONAL WEATHER SERVICE SPRINGFIELD MO
600 PM CDT MON MAR 27 2017

NOTE: "FAIR" INDICATES FEW OR NO CLOUDS BELOW 12,000 FEET WITH NO
       SIGNIFICANT WEATHER AND/OR OBSTRUCTIONS TO VISIBILITY.
       CURRENT SKY AND/OR WEATHER CONDITIONS ARE NOT AVAILABLE FOR
       CHILLICOTHE AND FARMINGTON.

MOZ001>031-035>038-043-044-053-054-280000-
...NORTHERN AND WESTERN MISSOURI...

CITY           SKY/WX    TMP DP  RH WIND       PRES   REMARKS
KANSAS CTY INT CLOUDY    53  47  79 N9        29.93R
KANSAS C DTWN  CLOUDY    54  46  74 N8        29.92S
LEE`S SUMMIT   CLOUDY    52  48  86 NW8       29.92S
ST JOSEPH      CLOUDY    55  47  74 N9        29.93S
CHILLICOTHE      N/A     52  47  83 N8        29.92S
KIRKSVILLE     CLOUDY    50  47  89 N10       29.91F

$$
MOZ066>068-077>081-088>096-101>105-280000-
...SOUTHWEST MISSOURI...

CITY           SKY/WX    TMP DP  RH WIND       PRES   REMARKS
SPRINGFIELD    CLOUDY    54  50  86 NW7       29.89R
JOPLIN         CLOUDY    52  50  93 NW6       29.92S
BRANSON        CLOUDY    59  54  82 NW10      29.88R

$$
MOZ032>034-039>042-045>050-055>058-069>072-280000-
...CENTRAL MISSOURI...

CITY           SKY/WX    TMP DP  RH WIND       PRES   REMARKS
COLUMBIA       LGT RAIN  54  54 100 NW7       29.87S FOG
JEFFERSON CITY CLOUDY    56  53  90 NW8       29.87S FOG
ROLLA          CLOUDY    56  55  97 N12       29.84R
SEDALIA        CLOUDY    53  50  89 N13       29.91R
WHITEMAN AFB   CLOUDY    52  52 100 N9        29.90R
WARRENSBURG    CLOUDY    50  46  87 N7        29.91R
OSAGE BEACH    CLOUDY   N/A N/A N/A NW6       29.89S

$$
MOZ051-052-059>065-280000-
...EAST CENTRAL MISSOURI...

CITY           SKY/WX    TMP DP  RH WIND       PRES   REMARKS
ST LOUIS INTL  CLOUDY    58  52  80 N7        29.84R
SPIRIT OF STL  CLOUDY    57  54  89 N5        29.84R FOG
ST CHARLES     CLOUDY    58  54  86 NW8       29.84R

$$
MOZ072>076-082>087-097>100-106>115-280000-
...SOUTH CENTRAL AND SOUTHEAST MISSOURI...

CITY           SKY/WX    TMP DP  RH WIND       PRES   REMARKS
CAPE GIRARDEAU CLOUDY    63  56  78 S8        29.80R
FARMINGTON     PTSUNNY   61  56  83 N10       29.83R
POPLAR BLUFF   SUNNY     68  57  68 W8        29.80R
WEST PLAINS    SUNNY     65  51  60 W13G21    29.85R

$$




USA.gov is the U.S. government's official web portal to all federal, state and local government web resources and services.